Tracking 20232 objects as of 18-Jan-2020
HD Live streaming from Space Station
objects crossing your sky now

COSMOS 2251 DEB

Track COSMOS 2251 DEB now!
10-day predictions


NORAD ID: 34791
Int'l Code: 1993-036AAU
Perigee: 587.3 km
Apogee: 655.0 km
Inclination: 74.0 °
Period: 97.0 minutes
Semi major axis: 6992 km
RCS: 0.0091 m2 (small)
Launch date: June 16, 1993
Source: Commonwealth of Independent States (former USSR) (CIS)
Launch site: PLESETSK MISSILE AND SPACE COMPLEX (PKMTR)

Note: This is SATELLITE DEBRIS
aabbcc
Your satellite tracking list
Your tracking list is empty




NASA's NSSDC Master Catalog

Two Line Element Set (TLE):
1 34791U 93036AAU 20017.90591677 +.00001359 +00000-0 +16089-3 0  9994
2 34791 074.0180 200.5786 0048463 169.7938 190.4238 14.84868488584948
Source of the keplerian elements: AFSPC